[[{"header":{"parameterUnit":"m.s-1","parameterCategory":2,"la1":30.2992,"la2":30.254,"lo1":-89.0895,"lo2":-89.0443,"dy":0.0025,"dx":0.0025,"nx":19,"ny":19,"refTime":"2026-05-22T21:00:00:Z","depth":"0","parameterNumber":2,"parameterNumberName":"U-component_of_CURRENTS"},"data":[0,0,0,0.1678,0.1676,0.1575,0.1575,0.16,0.1601,0,0,0,0,0,0,0,0,0,0,0,0.173,0.173,0.1678,0.1675,0.1575,0.1575,0.16,0.1601,0,0,0,0,0,0,0,0,0,0,0,0.173,0.173,0.1729,0.1675,0.1575,0.1575,0.16,0.1639,0,0,0,0,0,0,0,0,0,0,0.1718,0.1732,0.173,0.1729,0.1674,0.1575,0.1575,0.164,0.1637,0.1688,0,0.1675,0,0.1632,0.1606,0.1606,0,0,0,0.1682,0.1734,0.1713,0.1729,0.1673,0.1575,0.1622,0.1637,0.1634,0.1686,0.1675,0.1674,0.1633,0.1606,0.1607,0.1723,0.1724,0,0,0.1687,0.1708,0.1715,0.1711,0.1654,0.1625,0.1619,0.1634,0.1635,0.1675,0.1674,0.1633,0.1607,0.1607,0.1722,0.1723,0,0,0,0.1699,0.1712,0.1688,0.1712,0.1678,0.1622,0.1615,0.1634,0.1627,0.1673,0.1634,0.1607,0.1608,0.1722,0.1723,0.1726,0,0,0,0.1703,0.1718,0.169,0.1701,0.1676,0.1629,0.1615,0.1626,0.1625,0.1633,0.1607,0.1609,0.1721,0.1722,0.1724,0.1724,0,0,0,0.1733,0.172,0.1712,0.1703,0.1654,0.1627,0.162,0.1624,0.1602,0.1606,0.1609,0.172,0.1722,0.1722,0.1722,0.1729,0,0,0,0.1754,0.1762,0.1713,0.1703,0.1655,0.1626,0.1619,0.16,0.1603,0.1607,0.1721,0.1723,0.1721,0.1721,0.1728,0.167,0.1671,0,0,0.1782,0.1766,0.1759,0.1712,0.1681,0.164,0.164,0.1638,0.1656,0.1726,0.1727,0.1724,0.1722,0.1729,0.1774,0.1771,0,0,0,0.1779,0.1769,0.1753,0.1713,0.1682,0.1664,0.1645,0.1667,0.1714,0.1663,0.176,0.176,0.1763,0.1727,0.1726,0.1543,0.1731,0.1731,0.1731,0.1816,0.1783,0.1765,0.1726,0.1714,0.1689,0.1706,0.1742,0.1744,0.1782,0.1788,0.1833,0.1797,0.1795,0.1608,0.182,0.182,0.182,0.182,0.1824,0.1795,0.1766,0.1744,0.1728,0.1732,0.1771,0.1782,0.1844,0.1841,0.1844,0.1765,0.1794,0.1595,0.1821,0.182,0.182,0.182,0.182,0.1816,0.1803,0.1791,0.1759,0.1749,0.1744,0.1762,0.18,0.1851,0.1868,0.1814,0.1813,0.1612,0.1855,0.1855,0.1855,0.1856,0.1856,0.1856,0.1811,0.1802,0.1789,0.1766,0.1744,0.1731,0.1751,0.1772,0.1796,0.1823,0.1822,0.161,0.1844,0.1813,0.1856,0.1856,0.1856,0.1856,0.1856,0.1781,0.1797,0.1772,0.1756,0.1709,0.167,0.1697,0.1702,0.1739,0.1748,0.1552,0.1803,0.1793,0.1794,0.1763,0.1791,0.1791,0.1791,0.1791,0.1765,0.177,0.1735,0.1704,0.1667,0.1637,0.1582,0.1574,0.1511,0.1428,0.1422,0.1368,0.1379,0.1342,0.1353,0.1312,0.1225,0.1224,0.1223,0.1738,0.1735,0.1696,0.1676,0.1635,0.1585,0.1491,0.1378,0.1239,0.1182,0.1176,0.12,0.1105,0.1137,0.1069,0.1098,0.103,0,0]},{"header":{"parameterUnit":"m.s-1","parameterCategory":2,"la1":30.2992,"la2":30.254,"lo1":-89.0895,"lo2":-89.0443,"dy":0.0025,"dx":0.0025,"nx":19,"ny":19,"refTime":"2026-05-22T21:00:00:Z","depth":"0","parameterNumber":3,"parameterNumberName":"V-component_of_CURRENTS"},"data":[0,0,0,0.0083,0.0083,0.0124,0.0124,0.0308,0.031,0,0,0,0,0,0,0,0,0,0,0,0.0078,0.0078,0.0083,0.0083,0.0124,0.0124,0.0308,0.031,0,0,0,0,0,0,0,0,0,0,0,0.0078,0.0078,0.0078,0.0083,0.0124,0.0124,0.0307,0.0249,0,0,0,0,0,0,0,0,0,0,0.0196,0.017,0.0078,0.0078,0.0083,0.0124,0.0124,0.0246,0.0253,0.032,0,0.0314,0,0.0306,0.0323,0.0324,0,0,0,0.0106,0.0163,0.0163,0.0078,0.0083,0.0124,0.0112,0.0249,0.0258,0.0331,0.0316,0.0322,0.0309,0.0324,0.0325,0.0612,0.0614,0,0,0.0104,0.0105,0.0156,0.0167,0.0081,0.0111,0.0113,0.0253,0.0268,0.0317,0.0325,0.0312,0.0326,0.0327,0.061,0.0612,0,0,0,0.0082,0.0103,0.0097,0.0161,0.0152,0.0111,0.0114,0.0262,0.0255,0.0327,0.0314,0.0327,0.0329,0.0609,0.0611,0.0645,0,0,0,0.0082,0.0088,0.0096,0.01,0.0148,0.019,0.012,0.0246,0.0261,0.0313,0.0327,0.0331,0.0607,0.061,0.064,0.0644,0,0,0,0.0078,0.0089,0.0086,0.0099,0.0104,0.0187,0.019,0.0249,0.0253,0.0324,0.0332,0.0605,0.0609,0.0636,0.0637,0.0703,0,0,0,0.0089,0.0084,0.0086,0.0095,0.0103,0.0181,0.0188,0.026,0.0322,0.0328,0.0607,0.0611,0.0634,0.0634,0.0699,0.0686,0.0704,0,0,0.0086,0.0084,0.0092,0.0094,0.0154,0.0177,0.0305,0.0376,0.0415,0.057,0.0575,0.0642,0.0637,0.0702,0.0915,0.0926,0,0,0,0.0095,0.0101,0.0123,0.0156,0.0211,0.0321,0.0387,0.0454,0.0593,0.0464,0.0714,0.0711,0.0749,0.0736,0.0747,0.0756,0.0629,0.0629,0.0628,0.0104,0.0129,0.0176,0.0234,0.0306,0.0441,0.0548,0.0668,0.0678,0.0765,0.0792,0.0937,0.0927,0.0934,0.0946,0.086,0.0861,0.0861,0.0861,0.0129,0.0159,0.0229,0.0277,0.0404,0.0524,0.0729,0.0775,0.0948,0.092,0.0955,0.0839,0.0946,0.0956,0.0864,0.0864,0.0863,0.0863,0.0863,0.0141,0.0162,0.0192,0.0298,0.0431,0.0577,0.0747,0.0875,0.0978,0.1039,0.1029,0.1027,0.0987,0.1052,0.1052,0.1053,0.1053,0.1053,0.1054,0.0141,0.0178,0.0231,0.033,0.0404,0.0545,0.0759,0.0872,0.1019,0.1082,0.1082,0.1065,0.0995,0.0931,0.1059,0.1058,0.1057,0.1057,0.1056,0.0158,0.0173,0.0245,0.0307,0.0471,0.0596,0.0752,0.095,0.1066,0.1134,0.1168,0.1122,0.1109,0.11,0.1042,0.1191,0.1191,0.1191,0.1191,0.0169,0.0183,0.0276,0.0373,0.0506,0.0635,0.0821,0.1007,0.1172,0.1236,0.1231,0.1182,0.1175,0.1163,0.1153,0.1095,0.1254,0.1254,0.1255,0.0199,0.0216,0.0282,0.0373,0.0522,0.0669,0.0847,0.1069,0.1246,0.1259,0.1256,0.1253,0.1179,0.1168,0.1141,0.1127,0.1028,0,0]}],[{"header":{"parameterUnit":"m.s-1","parameterCategory":2,"la1":30.2992,"la2":30.254,"lo1":-89.0895,"lo2":-89.0443,"dy":0.0025,"dx":0.0025,"nx":19,"ny":19,"refTime":"2026-05-22T21:00:00:Z","depth":"2","parameterNumber":2,"parameterNumberName":"U-component_of_CURRENTS"},"data":[0,0,0,0.1537,0.1535,0.149,0.149,0.1558,0.1558,0,0,0,0,0,0,0,0,0,0,0,0.1566,0.1566,0.1537,0.1535,0.149,0.149,0.1558,0.1558,0,0,0,0,0,0,0,0,0,0,0,0.1567,0.1566,0.1566,0.1535,0.149,0.149,0.1557,0.1564,0,0,0,0,0,0,0,0,0,0,0.1594,0.1594,0.1566,0.1566,0.1534,0.149,0.149,0.1563,0.1564,0.1609,0,0.1596,0,0.1568,0.1564,0.1565,0,0,0,0.1552,0.1593,0.1579,0.1566,0.1534,0.149,0.1515,0.1563,0.1564,0.161,0.1597,0.1598,0.1569,0.1565,0.1565,0.1689,0.1689,0,0,0.1554,0.1565,0.1578,0.158,0.1517,0.1516,0.1513,0.1562,0.1565,0.1597,0.1599,0.1571,0.1566,0.1566,0.1688,0.1689,0,0,0,0.155,0.1566,0.1549,0.1578,0.1554,0.1514,0.1511,0.1563,0.1557,0.1599,0.1571,0.1566,0.1567,0.1687,0.1688,0.1689,0,0,0,0.1552,0.1562,0.155,0.1557,0.1552,0.1538,0.1512,0.1554,0.1557,0.1571,0.1566,0.1568,0.1687,0.1688,0.1688,0.1688,0,0,0,0.1569,0.1564,0.1556,0.1557,0.1527,0.1536,0.1532,0.1553,0.154,0.1565,0.1568,0.1686,0.1688,0.1686,0.1686,0.1701,0,0,0,0.1585,0.1573,0.1557,0.1542,0.1528,0.1522,0.1531,0.1538,0.1558,0.1566,0.1687,0.1688,0.1686,0.1685,0.17,0.1587,0.1584,0,0,0.1579,0.1572,0.1565,0.1548,0.1536,0.153,0.1554,0.1581,0.1605,0.1681,0.1682,0.1688,0.1686,0.1701,0.1682,0.1676,0,0,0,0.1569,0.1556,0.1555,0.1538,0.1539,0.156,0.1574,0.1603,0.1667,0.1619,0.1722,0.1721,0.173,0.166,0.1656,0.1696,0.1696,0.1696,0.1696,0.1535,0.1539,0.1544,0.1555,0.1557,0.1587,0.1622,0.1673,0.1692,0.1733,0.1746,0.1793,0.1721,0.1716,0.1775,0.1775,0.1775,0.1775,0.1775,0.1532,0.1539,0.1549,0.1566,0.1594,0.1621,0.1679,0.1706,0.1787,0.1792,0.18,0.1696,0.1711,0.1776,0.1776,0.1776,0.1776,0.1776,0.1776,0.1522,0.1536,0.1561,0.1586,0.1616,0.1648,0.1677,0.1733,0.1789,0.1811,0.1741,0.174,0.1774,0.1818,0.1818,0.1818,0.1818,0.1818,0.1818,0.1521,0.1547,0.1576,0.1603,0.1619,0.1635,0.1688,0.1714,0.173,0.1743,0.1742,0.1808,0.1806,0.1778,0.182,0.1819,0.1819,0.1819,0.1819,0.1529,0.1543,0.1569,0.1593,0.1615,0.1588,0.1635,0.1625,0.167,0.1657,0.1702,0.1704,0.1692,0.1694,0.1665,0.1675,0.1675,0.1675,0.1675,0.1532,0.154,0.1578,0.1593,0.1581,0.1569,0.1482,0.1379,0.1419,0.1356,0.1369,0.1312,0.1326,0.129,0.1302,0.1263,0.1169,0.1167,0.1166,0.1555,0.1557,0.1579,0.1584,0.157,0.1514,0.1353,0.1064,0.0931,0.1142,0.1239,0.1649,0.16,0.1607,0.1583,0.159,0.154,0,0]},{"header":{"parameterUnit":"m.s-1","parameterCategory":2,"la1":30.2992,"la2":30.254,"lo1":-89.0895,"lo2":-89.0443,"dy":0.0025,"dx":0.0025,"nx":19,"ny":19,"refTime":"2026-05-22T21:00:00:Z","depth":"2","parameterNumber":3,"parameterNumberName":"V-component_of_CURRENTS"},"data":[0,0,0,-0.0202,-0.02,-0.0064,-0.0063,0.016,0.0162,0,0,0,0,0,0,0,0,0,0,0,-0.0243,-0.0242,-0.0202,-0.0199,-0.0065,-0.0063,0.016,0.0162,0,0,0,0,0,0,0,0,0,0,0,-0.0243,-0.0242,-0.0242,-0.0199,-0.0065,-0.0063,0.016,0.0053,0,0,0,0,0,0,0,0,0,0,-0.0082,-0.0133,-0.0243,-0.0242,-0.0199,-0.0065,-0.0063,0.0047,0.0059,0.0104,0,0.0108,0,0.0125,0.0175,0.0176,0,0,0,-0.0168,-0.0143,-0.0119,-0.0242,-0.0198,-0.0065,-0.0116,0.0054,0.0067,0.012,0.0111,0.0119,0.0129,0.0177,0.0178,0.0439,0.044,0,0,-0.0175,-0.0197,-0.0129,-0.0112,-0.0183,-0.0121,-0.0113,0.0062,0.0076,0.0112,0.0124,0.0133,0.0178,0.0179,0.0437,0.0439,0,0,0,-0.0218,-0.0203,-0.0183,-0.0121,-0.0108,-0.0118,-0.0108,0.0069,0.0071,0.0126,0.0135,0.0179,0.0181,0.0436,0.0438,0.0462,0,0,0,-0.0221,-0.023,-0.0187,-0.0195,-0.0113,-0.0024,-0.0105,0.006,0.0079,0.0134,0.0179,0.0183,0.0434,0.0437,0.0458,0.0477,0,0,0,-0.0245,-0.0232,-0.0226,-0.0197,-0.0155,-0.0027,-0.0013,0.0065,0.0084,0.0176,0.0184,0.0433,0.0436,0.0454,0.0472,0.0554,0,0,0,-0.0257,-0.0266,-0.0227,-0.0209,-0.0157,-0.0044,-0.0013,0.009,0.017,0.018,0.0434,0.0438,0.0453,0.0468,0.055,0.0525,0.0542,0,0,-0.0281,-0.0269,-0.0254,-0.0217,-0.0133,-0.0059,0.0091,0.0198,0.0241,0.0382,0.0389,0.0459,0.0471,0.0553,0.0714,0.0725,0,0,0,-0.0268,-0.0263,-0.0225,-0.0166,-0.007,0.0076,0.0187,0.0255,0.04,0.0296,0.052,0.0528,0.0578,0.0556,0.0567,0.0453,0.0453,0.0453,0.0452,-0.0358,-0.0283,-0.0212,-0.0094,-0.0005,0.0188,0.0309,0.0436,0.0467,0.0544,0.0591,0.0732,0.0711,0.0718,0.0638,0.0639,0.0639,0.0639,0.0639,-0.0353,-0.0279,-0.0174,-0.0072,0.0095,0.0241,0.0452,0.0516,0.0714,0.0688,0.0735,0.0637,0.073,0.0642,0.0641,0.0641,0.0641,0.064,0.064,-0.0365,-0.0302,-0.0233,-0.0064,0.0114,0.0303,0.0486,0.0634,0.0736,0.0813,0.083,0.0829,0.073,0.0854,0.0855,0.0855,0.0856,0.0856,0.0856,-0.0369,-0.029,-0.0194,-0.0033,0.0088,0.0272,0.0539,0.0663,0.0828,0.0886,0.0886,0.0806,0.0798,0.0746,0.0864,0.0862,0.0861,0.0861,0.086,-0.0306,-0.03,-0.0166,-0.0059,0.0192,0.0346,0.0539,0.0767,0.0907,0.097,0.0935,0.0931,0.0929,0.092,0.0874,0.1017,0.1017,0.1017,0.1017,-0.0278,-0.0266,-0.0077,0.0073,0.0239,0.0405,0.0612,0.0791,0.0935,0.0968,0.097,0.0889,0.0884,0.0875,0.0867,0.0817,0.0947,0.0947,0.0946,-0.0205,-0.0168,-0.0022,0.0104,0.0287,0.0447,0.063,0.0778,0.0871,0.0942,0.0938,0.1016,0.0899,0.0891,0.0873,0.0862,0.0781,0,0]}],[{"header":{"parameterUnit":"m.s-1","parameterCategory":2,"la1":30.2992,"la2":30.254,"lo1":-89.0895,"lo2":-89.0443,"dy":0.0025,"dx":0.0025,"nx":19,"ny":19,"refTime":"2026-05-22T21:00:00:Z","depth":"4","parameterNumber":2,"parameterNumberName":"U-component_of_CURRENTS"},"data":[0,0,0,-0.0644,-0.0646,-0.0591,-0.0589,-0.0178,-0.0175,0,0,0,0,0,0,0,0,0,0,0,-0.0688,-0.0691,-0.0644,-0.0646,-0.0591,-0.0589,-0.0179,-0.0175,0,0,0,0,0,0,0,0,0,0,0,-0.0686,-0.069,-0.0693,-0.0647,-0.0591,-0.0589,-0.018,-0.0282,0,0,0,0,0,0,0,0,0,0,-0.0367,-0.0452,-0.0689,-0.0693,-0.0647,-0.0592,-0.0589,-0.0289,-0.0275,-0.0138,0,-0.0237,0,-0.0224,-0.0149,-0.0148,0,0,0,-0.0544,-0.0465,-0.0509,-0.0694,-0.0648,-0.0592,-0.0587,-0.0283,-0.0267,-0.0118,-0.0231,-0.0217,-0.0217,-0.0146,-0.0144,0.0161,0.0161,0,0,-0.0547,-0.0579,-0.0523,-0.0504,-0.0765,-0.059,-0.0587,-0.0276,-0.0271,-0.023,-0.0208,-0.0211,-0.0144,-0.0141,0.016,0.0161,0,0,0,-0.0625,-0.0581,-0.0636,-0.0519,-0.0553,-0.0591,-0.0587,-0.0283,-0.0326,-0.0204,-0.0206,-0.0142,-0.0137,0.016,0.0161,0.0083,0,0,0,-0.0622,-0.0635,-0.0641,-0.0642,-0.0565,-0.0454,-0.0601,-0.0346,-0.0312,-0.0208,-0.0141,-0.0133,0.0159,0.016,0.0084,0.0077,0,0,0,-0.0667,-0.0634,-0.0686,-0.0648,-0.0674,-0.0462,-0.0477,-0.0339,-0.0314,-0.0147,-0.0132,0.0159,0.016,0.0085,0.0078,0.0105,0,0,0,-0.0612,-0.0633,-0.0689,-0.0699,-0.0678,-0.0593,-0.048,-0.0327,-0.019,-0.014,0.016,0.0161,0.0085,0.0079,0.0105,0.0039,0,0,0,-0.0573,-0.063,-0.0629,-0.0677,-0.0633,-0.0586,-0.0449,-0.0226,-0.0122,0.0099,0.0104,0.0084,0.0079,0.0105,0.0103,0,0,0,0,-0.0568,-0.059,-0.0587,-0.0599,-0.0568,-0.048,-0.0315,-0.0246,-0.0051,-0.0065,0.0128,0.0129,0.0146,0.0111,0.0166,0.0166,0.0166,0.0165,0.0165,-0.0517,-0.0522,-0.0496,-0.0502,-0.0456,-0.0352,-0.0264,-0.013,-0.004,0.0018,0.0095,0.0109,0.0069,0.0119,0.0118,0.0118,0.0118,0.0118,0.0118,-0.047,-0.0467,-0.0451,-0.0413,-0.0371,-0.0262,-0.0153,-0.0105,0.0027,0.0065,0.0086,0.0069,0.0111,0.0112,0.0113,0.0114,0.0115,0.0115,0.0115,-0.0457,-0.0445,-0.0438,-0.0393,-0.0298,-0.0216,-0.0142,-0.0069,0.0003,0.0025,0.0044,0.0092,0.0065,0.0049,0.0049,0.0049,0.0049,0.0049,0.0049,-0.0458,-0.0444,-0.0439,-0.0374,-0.0327,-0.0254,-0.0134,-0.0127,-0.007,-0.0009,0.0034,0.0088,0.009,0.0066,0.0051,0.005,0.005,0.005,0.005,-0.0437,-0.0484,-0.0471,-0.0446,-0.0372,-0.0323,-0.0211,-0.0163,-0.0129,-0.0148,-0.0019,-0.0015,0.0023,0.0028,0.0002,-0.0033,-0.0034,-0.0035,0,-0.0455,-0.0471,-0.0506,-0.0499,-0.0458,-0.0374,-0.0317,-0.0297,-0.0224,-0.0154,-0.0216,-0.0071,-0.0067,-0.003,-0.0026,-0.006,0,0,0,-0.0458,-0.0483,-0.0496,-0.0528,-0.0487,-0.0412,-0.0306,-0.0264,-0.0165,-0.0255,-0.0057,-0.0051,-0.0201,0.0054,0.0122,0.0125,0.0091,0,0]},{"header":{"parameterUnit":"m.s-1","parameterCategory":2,"la1":30.2992,"la2":30.254,"lo1":-89.0895,"lo2":-89.0443,"dy":0.0025,"dx":0.0025,"nx":19,"ny":19,"refTime":"2026-05-22T21:00:00:Z","depth":"4","parameterNumber":3,"parameterNumberName":"V-component_of_CURRENTS"},"data":[0,0,0,0.0305,0.0305,0.0167,0.0166,-0.0048,-0.0049,0,0,0,0,0,0,0,0,0,0,0,0.0381,0.0382,0.0305,0.0305,0.0167,0.0166,-0.0048,-0.0049,0,0,0,0,0,0,0,0,0,0,0,0.038,0.0382,0.0384,0.0305,0.0168,0.0166,-0.0048,0.0047,0,0,0,0,0,0,0,0,0,0,0.0178,0.0239,0.0382,0.0384,0.0305,0.0168,0.0165,0.0052,0.0042,0.0027,0,0.0086,0,0.0036,-0.0057,-0.0058,0,0,0,0.0229,0.0247,0.0265,0.0384,0.0304,0.0169,0.0208,0.0046,0.0034,0.0014,0.0082,0.0073,0.0033,-0.0058,-0.0059,-0.0144,-0.0144,0,0,0.0236,0.0277,0.0274,0.0261,0.0372,0.0213,0.0205,0.0038,0.0039,0.0081,0.0068,0.0029,-0.0059,-0.006,-0.0144,-0.0144,0,0,0,0.0309,0.0283,0.0302,0.0271,0.0262,0.0211,0.0201,0.0044,0.007,0.0065,0.0027,-0.006,-0.0061,-0.0144,-0.0144,-0.0116,0,0,0,0.031,0.0332,0.0308,0.0318,0.0269,0.0146,0.0211,0.0081,0.006,0.0028,-0.006,-0.0062,-0.0144,-0.0144,-0.0117,-0.0025,0,0,0,0.0368,0.0333,0.0364,0.0323,0.03,0.0149,0.0157,0.0074,0.004,-0.0058,-0.0063,-0.0144,-0.0144,-0.0117,-0.0029,0.007,0,0,0,0.0345,0.0385,0.0366,0.0416,0.0304,0.0257,0.0157,0.0037,-0.0046,-0.006,-0.0144,-0.0144,-0.0117,-0.0032,0.0067,-0.0041,0,0,0,0.0368,0.0389,0.0424,0.0404,0.0439,0.0264,0.02,0.0029,-0.0048,-0.0105,-0.0108,-0.0116,-0.0029,0.0069,-0.0045,0,0,0,0,0.0412,0.0442,0.0455,0.0483,0.0446,0.034,0.0156,0.0078,-0.0064,-0.0078,-0.0125,-0.0069,-0.0008,-0.0085,-0.0144,-0.0144,-0.0144,-0.0144,-0.0144,0.0418,0.0458,0.0513,0.0536,0.0499,0.0346,0.0256,0.0112,-0.0003,-0.007,-0.0058,0.0034,-0.0054,-0.0111,-0.0111,-0.0111,-0.0111,-0.0111,-0.0111,0.0468,0.0503,0.0552,0.0614,0.0568,0.0475,0.0304,0.0185,0.0115,-0.0013,0.0042,-0.0065,-0.0108,-0.0109,-0.0109,-0.011,-0.011,-0.011,-0.011,0.0453,0.0474,0.0572,0.0664,0.0622,0.0494,0.0422,0.029,0.0193,0.0205,0.0127,0.0103,0.0119,0.0197,0.0198,0.0199,0.0199,0.02,0.0201,0.0397,0.0495,0.0585,0.0662,0.0668,0.0592,0.0472,0.041,0.031,0.0222,0.0221,0.014,0.013,0.0139,0.0213,0.0211,0.0209,0.0208,0.0207,0.0346,0.0425,0.0558,0.0628,0.0657,0.057,0.0557,0.0421,0.0427,0.0348,0.0244,0.0239,0.0253,0.0242,0.0254,0.0366,0.0365,0.0364,0,0.0289,0.0339,0.0534,0.0619,0.0594,0.0537,0.0468,0.0403,0.0314,0.0318,0.0369,0.0256,0.0249,0.026,0.0249,0.0262,0,0,0,0.0257,0.0347,0.0439,0.0582,0.0526,0.0419,0.0414,0.0347,0.0416,0.027,0.034,0.0346,0.0166,0.025,0.0262,0.0249,0.0266,0,0]}]]